• In Spain
  • List of Countries
  • For 7 days
  • Water Temperature
  • Satellite Maps
  • Weather Map
  • Weather Widgets
  • user-avatar
    Login

    Hourly Weather Lysva

    Today, 15 August, Wednesday

    Time Temperature Precipitation Wind Pressure Humidity
    00:00 +13°C° 0 mm 1 mps 743 mmHg 90%
    01:00 +13°C° 0 mm 1 mps 743 mmHg 93%
    02:00 +13°C° 0 mm 1 mps 743 mmHg 94%
    03:00 +12°C° 0 mm 1 mps 743 mmHg 95%
    04:00 +12°C° 0 mm 1 mps 743 mmHg 97%
    05:00 +13°C° 0 mm 1 mps 744 mmHg 93%
    06:00 +14°C° 0 mm 2 mps 744 mmHg 90%
    07:00 +15°C° 0 mm 2 mps 744 mmHg 87%
    08:00 +16°C° 0 mm 3 mps 744 mmHg 78%
    09:00 +18°C° 0 mm 3 mps 744 mmHg 69%
    10:00 +20°C° 0 mm 3 mps 744 mmHg 60%
    11:00 +21°C° 0 mm 4 mps 744 mmHg 56%
    12:00 +21°C° 0 mm 4 mps 744 mmHg 53%
    13:00 +22°C° 0 mm 4 mps 744 mmHg 49%
    14:00 +22°C° 0 mm 4 mps 745 mmHg 48%
    15:00 +22°C° 0 mm 4 mps 745 mmHg 48%
    16:00 +22°C° 0 mm 4 mps 745 mmHg 48%
    17:00 +21°C° 0 mm 3 mps 745 mmHg 56%
    18:00 +20°C° 0 mm 2 mps 745 mmHg 63%
    19:00 +18°C° 0 mm 2 mps 745 mmHg 71%
    20:00 +18°C° 0 mm 1 mps 746 mmHg 76%
    21:00 +15°C° 0 mm 1 mps 746 mmHg 81%
    22:00 +14°C° 0 mm 1 mps 746 mmHg 86%
    23:00 +13°C° 0 mm 1 mps 746 mmHg 88%

    Tomorrow, 16 August, Thursday

    Time Temperature Precipitation Wind Pressure Humidity
    00:00 +13°C° 0 mm 1 mps 746 mmHg 91%
    01:00 +12°C° 0 mm 1 mps 746 mmHg 93%
    02:00 +12°C° 0 mm 1 mps 746 mmHg 94%
    03:00 +12°C° 0 mm 1 mps 746 mmHg 94%
    04:00 +11°C° 0 mm 1 mps 747 mmHg 95%
    05:00 +12°C° 0 mm 1 mps 746 mmHg 91%
    06:00 +14°C° 0 mm 1 mps 746 mmHg 88%
    07:00 +15°C° 0 mm 2 mps 746 mmHg 84%
    08:00 +15°C° 0.4 mm 2 mps 746 mmHg 85%
    09:00 +16°C° 0.4 mm 2 mps 745 mmHg 87%
    10:00 +16°C° 0.4 mm 2 mps 745 mmHg 88%
    11:00 +16°C° 2.2 mm 2 mps 745 mmHg 91%
    12:00 +16°C° 2.2 mm 2 mps 744 mmHg 93%
    13:00 +16°C° 2.2 mm 2 mps 744 mmHg 96%
    14:00 +16°C° 0.9 mm 2 mps 743 mmHg 96%
    15:00 +17°C° 0.9 mm 3 mps 743 mmHg 96%
    16:00 +17°C° 0.9 mm 3 mps 743 mmHg 96%
    17:00 +18°C° 0.8 mm 3 mps 743 mmHg 97%
    18:00 +18°C° 0.8 mm 2 mps 743 mmHg 97%
    19:00 +18°C° 0.8 mm 2 mps 742 mmHg 97%
    20:00 +17°C° 0.2 mm 2 mps 742 mmHg 97%
    21:00 +17°C° 0.2 mm 2 mps 742 mmHg 98%
    22:00 +16°C° 0.2 mm 2 mps 743 mmHg 99%
    23:00 +16°C° 0 mm 2 mps 743 mmHg 98%

    Day after tomorrow, 17 August, Friday

    Time Temperature Precipitation Wind Pressure Humidity
    00:00 +14°C° 0 mm 3 mps 743 mmHg 98%
    01:00 +14°C° 0 mm 3 mps 743 mmHg 98%
    02:00 +13°C° 0 mm 3 mps 743 mmHg 98%
    03:00 +12°C° 0 mm 3 mps 744 mmHg 98%
    04:00 +12°C° 0 mm 3 mps 744 mmHg 98%
    05:00 +12°C° 0 mm 3 mps 744 mmHg 97%
    06:00 +12°C° 0 mm 3 mps 744 mmHg 96%
    07:00 +13°C° 0 mm 2 mps 745 mmHg 96%
    08:00 +14°C° 0 mm 3 mps 745 mmHg 88%
    09:00 +16°C° 0 mm 3 mps 745 mmHg 81%
    10:00 +18°C° 0 mm 3 mps 746 mmHg 73%
    11:00 +19°C° 0 mm 3 mps 746 mmHg 68%
    12:00 +20°C° 0 mm 4 mps 746 mmHg 62%
    13:00 +21°C° 0 mm 4 mps 746 mmHg 57%
    14:00 +20°C° 0.2 mm 4 mps 746 mmHg 59%
    15:00 +20°C° 0.2 mm 4 mps 746 mmHg 61%
    16:00 +20°C° 0.2 mm 4 mps 746 mmHg 63%
    17:00 +19°C° 0.1 mm 3 mps 746 mmHg 68%
    18:00 +17°C° 0.1 mm 3 mps 746 mmHg 72%
    19:00 +16°C° 0.1 mm 2 mps 747 mmHg 77%
    20:00 +15°C° 0 mm 2 mps 747 mmHg 81%
    21:00 +13°C° 0 mm 2 mps 747 mmHg 84%
    22:00 +12°C° 0 mm 2 mps 747 mmHg 87%
    23:00 +10°C° 0 mm 2 mps 748 mmHg 88%

    18 August, Saturday

    Time Temperature Precipitation Wind Pressure Humidity
    00:00 +10°C° 0 mm 2 mps 748 mmHg 90%
    01:00 +9°C° 0 mm 2 mps 748 mmHg 92%
    02:00 +9°C° 0 mm 2 mps 748 mmHg 92%
    03:00 +8°C° 0 mm 2 mps 748 mmHg 93%
    04:00 +7°C° 0 mm 2 mps 749 mmHg 94%
    05:00 +8°C° 0 mm 2 mps 749 mmHg 90%
    06:00 +9°C° 0 mm 3 mps 749 mmHg 86%
    07:00 +10°C° 0 mm 3 mps 750 mmHg 82%
    08:00 +11°C° 0 mm 3 mps 750 mmHg 74%
    09:00 +13°C° 0 mm 3 mps 750 mmHg 66%
    10:00 +14°C° 0 mm 3 mps 750 mmHg 58%
    11:00 +16°C° 0 mm 3 mps 750 mmHg 56%
    12:00 +17°C° 0 mm 3 mps 750 mmHg 55%
    13:00 +17°C° 0 mm 3 mps 750 mmHg 53%
    14:00 +17°C° 0.1 mm 3 mps 750 mmHg 55%
    15:00 +17°C° 0.1 mm 3 mps 750 mmHg 56%
    16:00 +17°C° 0.1 mm 3 mps 750 mmHg 58%
    17:00 +16°C° 0.1 mm 3 mps 750 mmHg 66%
    18:00 +15°C° 0.1 mm 2 mps 750 mmHg 74%
    19:00 +14°C° 0.1 mm 2 mps 751 mmHg 83%
    20:00 +13°C° 0 mm 2 mps 751 mmHg 86%
    21:00 +12°C° 0 mm 2 mps 751 mmHg 89%
    22:00 +10°C° 0 mm 2 mps 752 mmHg 92%
    23:00 +10°C° 0 mm 1 mps 752 mmHg 93%

    19 August, Sunday

    Time Temperature Precipitation Wind Pressure Humidity
    00:00 +9°C° 0 mm 1 mps 752 mmHg 93%
    01:00 +9°C° 0 mm 1 mps 752 mmHg 94%
    02:00 +8°C° 0 mm 1 mps 752 mmHg 94%
    03:00 +8°C° 0 mm 1 mps 752 mmHg 94%
    04:00 +8°C° 0 mm 1 mps 753 mmHg 94%
    05:00 +9°C° 0 mm 1 mps 753 mmHg 90%
    06:00 +10°C° 0 mm 1 mps 753 mmHg 86%
    07:00 +11°C° 0 mm 1 mps 753 mmHg 82%
    08:00 +13°C° 0 mm 1 mps 753 mmHg 71%
    09:00 +15°C° 0 mm 2 mps 753 mmHg 61%
    10:00 +17°C° 0 mm 2 mps 753 mmHg 50%
    11:00 +18°C° 0 mm 2 mps 753 mmHg 47%
    12:00 +18°C° 0 mm 2 mps 752 mmHg 44%
    13:00 +19°C° 0 mm 2 mps 752 mmHg 42%
    14:00 +20°C° 0 mm 2 mps 752 mmHg 42%
    15:00 +20°C° 0 mm 2 mps 752 mmHg 43%
    16:00 +20°C° 0 mm 2 mps 752 mmHg 43%
    17:00 +18°C° 0 mm 2 mps 751 mmHg 52%
    18:00 +18°C° 0 mm 1 mps 751 mmHg 61%
    19:00 +15°C° 0 mm 1 mps 751 mmHg 69%
    20:00 +14°C° 0 mm 1 mps 751 mmHg 74%
    21:00 +12°C° 0 mm 1 mps 752 mmHg 78%
    22:00 +10°C° 0 mm 1 mps 752 mmHg 83%
    23:00 +10°C° 0 mm 1 mps 752 mmHg 84%

    20 August, Monday

    Time Temperature Precipitation Wind Pressure Humidity
    00:00 +8°C° 0 mm 0 mps 752 mmHg 86%
    01:00 +8°C° 0 mm 0 mps 752 mmHg 87%
    02:00 +8°C° 0 mm 0 mps 752 mmHg 89%
    03:00 +7°C° 0 mm 0 mps 752 mmHg 90%
    04:00 +7°C° 0 mm 0 mps 752 mmHg 91%
    05:00 +9°C° 0 mm 0 mps 752 mmHg 86%
    06:00 +10°C° 0 mm 0 mps 752 mmHg 81%
    07:00 +12°C° 0 mm 0 mps 751 mmHg 76%
    08:00 +14°C° 0 mm 0 mps 751 mmHg 68%
    09:00 +18°C° 0 mm 1 mps 751 mmHg 61%
    10:00 +21°C° 0 mm 1 mps 751 mmHg 53%
    11:00 +22°C° 0 mm 1 mps 750 mmHg 50%
    12:00 +23°C° 0 mm 1 mps 750 mmHg 46%
    13:00 +24°C° 0 mm 1 mps 750 mmHg 43%
    14:00 +23°C° 0 mm 1 mps 750 mmHg 44%
    15:00 +23°C° 0 mm 1 mps 749 mmHg 45%
    16:00 +23°C° 0 mm 1 mps 749 mmHg 46%
    17:00 +21°C° 0 mm 1 mps 749 mmHg 54%
    18:00 +20°C° 0 mm 1 mps 749 mmHg 62%
    19:00 +18°C° 0 mm 1 mps 749 mmHg 69%
    20:00 +15°C° 0 mm 1 mps 748 mmHg 72%
    21:00 +14°C° 0 mm 1 mps 748 mmHg 76%
    22:00 +11°C° 0 mm 0 mps 748 mmHg 79%
    23:00 +11°C° 0 mm 0 mps 748 mmHg 81%
    Show more